"Pseudo-MPEC" for 8UB359A

Created 2016 Sep 30 23:54:48 UT using Find_Orb

Astrometry:
     8UB359A  C2008 10 21.21657 00 57 23.40 +06 45 55.2                r     G96
     8UB359A  C2008 10 21.22153 00 58 18.01 +07 05 20.6                r     G96
     8UB359A  C2008 10 21.22651 00 59 12.69 +07 24 48.9                r     G96
     8UB359A  C2008 10 21.24961 01 03 25.55 +08 54 29.0                r     G96
     8UB359A  C2008 10 21.24992 01 03 28.86 +08 55 39.3                r     G96
     8UB359A  C2008 10 21.25022 01 03 32.24 +08 56 50.1                r     G96
     8UB359A  C2008 10 21.25052 01 03 35.48 +08 57 59.1                r     G96
     8UB359A  C2008 10 21.27558 01 08 11.40 +10 33 57.9          17.8 Vr     G96
     8UB359A  C2008 10 21.27607 01 08 16.83 +10 35 49.4          17.7 Vr     G96
     8UB359A  C2008 10 21.28065 01 09 07.84 +10 53 14.9          18.0 Vr     G96
     8UB359A  C2008 10 21.28085 01 09 10.08 +10 54 00.2          17.8 Vr     G96
     8UB359A  C2008 10 21.28106 01 09 12.45 +10 54 48.6          17.9 Vr     G96
     8UB359A  C2008 10 21.28128 01 09 14.86 +10 55 38.1          18.0 Vr     G96

Station data:
(G96) Mt. Lemmon Survey (N32.44283 W110.78872)  US/Arizona.   Observers E. J.
    Christensen, A. R. Gibbs, A. D. Grauer, R. E. Hill, J. A. Johnson, R. A.
    Kowalski, S. M. Larson, F. C. Shelly.  1.5-m reflector + CCD.

Orbital elements:  8UB359A
   Perigee 2008 Oct 20.711383 +/- 0.00452 TT = 17:04:23 (JD 2454760.211383)
Epoch 2008 Oct 21.0 TT = JDT 2454760.5                        Find_Orb
M  97.624250 +/- 0.7                (J2000 equatorial)
n 338.248861059 +/- 2.84            Peri.  195.700830 +/- 0.13
a 44033.10162 +/- 247               Node     3.121898 +/- 0.049
e   0.67192685 +/- 0.00325          Incl.   42.214412 +/- 0.041
P1532.57m/1.064d           H 34.1   G  0.15   U 13.4  
q 14446.07810 +/- 223    Q 73620.12513 +/- 269
From 13 observations 2008 Oct. 21 (93.2 min); mean residual 0".527
Residuals in arcseconds: 
081021 G96 .021- 1.25+    081021 G96 .615+ .691+    081021 G96 .086+ .138-    
081021 G96 .013+ .786-    081021 G96 .040- .308+    081021 G96 .467+ .407+    
081021 G96 .087- 1.18-    081021 G96 .114- .023-    081021 G96 .215- .223-    
081021 G96 .427+ .703+    081021 G96 .296- .443-    
081021 G96 .807- .716-    081021 G96 .031- .142+    

Ephemerides (geocentric):
Date (UTC) HH   RA              Dec         delta   r     elong  mag " sig PA
---- -- -- --  ------------   ------------  ------ ------ -----  --- ---- ---
2008 10 21 00  23 46 53.927   -05 46 10.59   62314 0.9958 146.6 18.5   70  18
2008 10 21 01  00 01 32.191   -02 28 44.02   65962 0.9958 151.4 18.5   55  14
2008 10 21 02  00 14 43.261   +00 30 31.95   68856 0.9958 155.6 18.5   41   8
2008 10 21 03  00 26 58.441   +03 16 55.75   71041 0.9959 159.5 18.5   30 177
2008 10 21 04  00 38 39.976   +05 54 21.22   72550 0.9959 163.1 18.4   21 164
2008 10 21 05  00 50 05.282   +08 25 50.71   73403 0.9959 166.5 18.3   16 154
2008 10 21 06  01 01 29.477   +10 53 55.69   73612 0.9959 169.5 18.2   13 163
2008 10 21 07  01 13 07.187   +13 20 50.81   73179 0.9959 171.9 18.1   16  18
2008 10 21 08  01 25 14.156   +15 48 44.60   72100 0.9958 173.1 18.0   33  42
2008 10 21 09  01 38 09.105   +18 19 48.70   70359 0.9958 172.3 18.0   65  51
2008 10 21 10  01 52 16.345   +20 56 26.85   67931 0.9958 169.8 18.0  118  54
2008 10 21 11  02 08 10.055   +23 41 24.41   64781 0.9957 166.1 18.0  201  56
2008 10 21 12  02 26 42.053   +26 37 57.26   60857 0.9957 161.5 18.1  330  58
2008 10 21 13  02 49 17.356   +29 49 53.18   56090 0.9956 155.9 18.0  538  61
2008 10 21 14  03 18 28.528   +33 20 52.67   50385 0.9956 149.1 18.0  890  64
2008 10 21 15  03 59 20.267   +37 10 35.58   43618 0.9955 140.2 18.0 1536  70
2008 10 21 16  05 03 18.637   +40 53 58.22   35642 0.9954 127.4 17.9 2897  79
2008 10 21 17  06 57 29.899   +41 39 38.76   26406 0.9953 106.3 17.9 6465  98
2008 10 21 18  10 19 25.098   +23 14 37.28   17045 0.9952  61.1 19.1 309' 126
2008 10 21 19  15 08 45.954   -32 15 26.16   15707 0.9951  28.5 22?? 454' 119
2008 10 21 20  19 41 47.133   -39 59 37.99   24499 0.9952  82.0 18.7 208'  75
2008 10 21 21  21 31 12.942   -30 23 35.58   33940 0.9953 106.0 18.4 6870  59
2008 10 21 22  22 23 26.186   -22 32 28.97   42166 0.9953 119.9 18.5 4593  53
2008 10 21 23  22 55 55.323   -16 32 18.12   49157 0.9954 129.5 18.5 3440  50
2008 10 22 00  23 19 25.335   -11 43 48.53   55059 0.9954 136.8 18.6 2764  48
2008 10 22 01  23 38 03.823   -07 41 58.88   60001 0.9955 142.8 18.6 2330  47
2008 10 22 02  23 53 47.813   -04 11 41.62   64083 0.9955 147.8 18.6 2035  47
2008 10 22 03  00 07 41.305   -01 03 22.00   67379 0.9955 152.3 18.6 1828  47
2008 10 22 04  00 20 23.475   +01 49 25.81   69944 0.9956 156.4 18.5 1683  47
2008 10 22 05  00 32 20.771   +04 31 16.30   71817 0.9956 160.1 18.5 1584  47
2008 10 22 06  00 43 52.828   +07 05 36.58   73024 0.9956 163.6 18.4 1523  48
2008 10 22 07  00 55 15.751   +09 35 12.78   73582 0.9956 166.9 18.3 1495  48
2008 10 22 08  01 06 44.224   +12 02 27.14   73499 0.9956 169.7 18.2 1501  49
2008 10 22 09  01 18 33.174   +14 29 30.25   72772 0.9956 172.0 18.1 1541  50
2008 10 22 10  01 30 59.439   +16 58 30.86   71393 0.9955 172.8 18.0 1622  51
2008 10 22 11  01 44 23.893   +19 31 44.88   69342 0.9955 171.6 18.0 1753  52
2008 10 22 12  01 59 14.667   +22 11 44.59   66590 0.9955 168.8 18.0 1954  53
2008 10 22 13  02 16 12.700   +25 01 28.12   63094 0.9954 164.8 18.0 2253  55
2008 10 22 14  02 36 22.283   +28 04 26.56   58795 0.9954 159.9 18.0 2705  57
2008 10 22 15  03 01 33.100   +31 24 34.10   53612 0.9953 153.9 18.0 3414  61
2008 10 22 16  03 35 11.331   +35 04 35.51   47440 0.9953 146.3 18.0 4598  65
2008 10 22 17  04 24 31.827   +38 57 48.05   40138 0.9952 135.9 17.9 6790  73
2008 10 22 18  05 46 38.666   +42 02 13.36   31573 0.9951 120.3 17.8 192'  86
2008 10 22 19  08 18 02.484   +37 44 46.04   21933 0.9950  91.5 18.0 417' 111
2008 10 22 20  12 18 44.227   -01 27 24.71   14601 0.9949  24.8 23??  17d 132
2008 10 22 21  17 38 00.231   -41 53 34.33   19265 0.9949  58.0 19?? 735'  96
2008 10 22 22  20 44 07.315   -35 34 11.92   28933 0.9949  94.0 18.5 331'  65
2008 10 22 23  21 58 52.661   -26 29 58.28   37860 0.9950 112.1 18.5 194'  56
2008 10 23 00  22 39 52.452   -19 35 00.00   45507 0.9951 123.7 18.5 8078  51
2008 10 23 01  23 07 28.785   -14 11 32.01   51983 0.9951 132.0 18.6 6193  49